Wind_Speed
10 13 11 11 10 12 18 14 6 4 7 7 7 9 20 19 22 26 27 23 24 26 32 33 32 31 26 24 23 23 22 21 20 20 21 21 21 21 20 20 19 19 19 18
13 15 14 14 16 19 19 19 21 23 27 20 28 15 15 21 23 25 25 26 26 32 35 32 29 29 28 27 26 25 24 23 23 22 22 22 22 22 22 21 20 20 19 19
5 7 9 11 14 18 11 8 18 16 16 14 5 9 17 22 26 25 21 33 38 34 32 31 30 29 28 27 28 30 27 26 25 24 24 23 23 23 23 22 22 21 21 20
5 8 2 4 1 3 14 10 14 12 7 8 13 18 17 25 13 26 35 35 34 32 33 30 29 29 29 26 24 27 29 28 27 27 26 25 26 26 24 23 23 22 21 20
3 2 11 8 2 3 4 5 11 12 3 10 14 21 16 12 26 37 32 31 29 28 28 27 24 22 24 24 23 23 27 26 25 25 26 26 28 27 26 26 25 24 23 22
2 2 5 1 5 5 6 5 6 10 2 7 11 5 5 22 31 33 25 22 24 24 24 23 22 23 22 22 23 23 23 23 23 24 27 29 28 28 27 27 27 26 25 23
7 5 8 9 10 5 1 4 9 2 9 10 4 9 23 29 30 22 19 21 22 21 22 22 22 22 24 25 25 24 24 25 26 26 27 28 28 27 27 28 28 28 27 25
4 5 9 14 7 5 2 3 8 14 9 6 12 19 21 22 20 16 20 23 24 25 24 22 22 25 27 28 26 26 26 26 26 27 28 28 28 27 28 28 29 29 28 26
11 7 8 18 11 12 14 22 26 9 8 11 18 22 22 18 15 16 19 22 25 27 28 29 29 28 32 31 28 31 32 30 29 29 28 28 29 28 28 29 31 31 29 29
3 8 17 23 23 29 29 18 10 9 11 16 19 21 17 14 15 18 21 23 27 27 30 33 32 32 31 32 29 29 31 33 31 31 31 31 31 31 30 30 30 31 30 29
11 13 25 28 34 31 17 16 15 16 20 20 19 15 13 15 17 21 25 27 28 27 31 33 35 36 34 34 34 35 35 35 36 35 33 32 32 32 33 32 30 30 31 29
18 23 25 30 30 32 25 18 19 17 19 18 12 13 14 15 18 23 26 27 28 29 32 34 36 36 37 36 33 32 34 34 35 37 37 36 34 35 33 34 31 31 29 29
34 33 35 38 33 31 28 24 19 20 17 13 13 11 12 17 20 22 25 28 29 30 32 33 35 37 38 36 34 33 33 34 35 35 37 36 34 34 37 35 33 33 33 32
41 40 36 37 37 27 23 22 24 21 13 12 13 14 17 20 23 26 32 34 33 32 31 32 34 36 36 36 35 33 35 35 36 37 35 36 35 35 34 34 37 36 33 32
33 31 30 22 22 24 20 19 15 12 11 13 13 17 21 26 31 30 30 33 34 34 34 33 33 34 34 34 34 35 37 39 38 37 36 35 35 36 35 35 35 35 35 33
16 17 16 18 15 8 6 8 10 13 15 20 24 26 29 30 32 33 33 30 32 36 37 36 34 32 32 33 35 37 38 38 37 35 35 36 36 36 36 35 36 33 33 32
11 8 6 5 8 9 11 13 16 20 23 25 30 34 34 35 35 34 32 31 34 36 38 36 32 30 30 32 34 36 37 37 36 36 37 34 35 36 36 37 37 34 33 31
10 8 8 9 14 18 20 20 21 23 25 27 28 34 40 38 36 36 34 34 35 36 37 38 34 30 30 31 34 35 36 37 37 35 36 36 36 35 35 35 36 38 35 32
13 15 18 16 20 22 25 26 27 30 31 32 34 35 38 41 41 40 40 41 40 41 39 40 37 32 32 32 33 35 37 38 37 39 37 37 36 35 34 33 34 34 33 32
18 26 29 30 36 27 29 30 33 33 34 34 35 37 40 42 42 43 44 45 44 42 42 41 38 36 35 34 36 37 38 40 40 37 38 38 37 37 36 36 35 34 34 32
31 32 33 33 33 31 30 32 32 32 33 32 35 37 39 41 42 42 46 47 48 41 41 40 38 37 38 40 42 40 40 41 38 35 36 36 35 38 36 35 33 31 31 31
32 33 33 35 37 37 34 34 34 35 37 39 40 41 42 43 45 46 46 48 47 41 38 37 37 37 39 41 40 41 40 41 38 36 38 38 41 40 37 35 34 32 30 30
34 35 34 34 35 38 38 40 42 42 42 42 42 43 44 45 46 46 47 44 42 38 35 35 36 39 40 38 39 40 40 41 39 38 39 39 41 39 38 35 34 32 32 32
37 36 35 37 38 39 41 44 42 40 40 40 39 40 40 41 42 42 40 37 35 30 31 35 39 39 38 38 39 39 41 43 38 38 35 44 40 37 38 36 34 32 32 28
38 38 38 39 42 42 42 44 39 40 41 38 39 41 39 37 35 38 37 36 34 32 35 38 39 40 41 40 40 39 42 39 40 41 44 42 38 34 32 33 32 32 27 23
37 38 41 44 43 43 42 40 38 41 40 41 42 41 39 37 35 34 34 34 34 35 38 39 38 39 40 39 39 41 38 40 38 41 37 33 30 30 30 28 25 21 18 17
41 42 44 42 40 40 39 37 36 39 40 38 39 40 38 37 36 36 36 37 37 37 37 38 39 38 36 37 39 36 36 34 40 33 29 27 24 24 23 19 15 13 12 11
Wind_Direction
268 282 277 263 246 203 212 217 198 231 253 270 267 296 299 320 322 325 326 324 324 324 325 326 323 324 324 312 312 314 310 305 306 303 300 297 298 299 300 301 302 302 301 301
289 261 254 260 251 235 234 228 243 255 271 280 276 277 324 313 313 318 319 322 323 321 320 320 322 321 317 319 316 307 303 305 304 302 300 298 298 298 299 300 301 300 302 302
271 345 314 280 262 218 216 226 228 242 253 289 288 321 304 311 313 314 326 322 320 320 319 318 317 315 312 313 309 307 305 302 302 301 299 299 296 295 297 298 299 301 302 302
281 312 248 235 39 2 222 239 227 254 280 297 289 289 314 307 345 336 332 322 319 319 318 318 315 310 312 316 311 301 306 306 305 306 303 301 296 296 297 296 296 299 301 301
256 283 284 290 184 152 168 274 231 222 235 269 309 319 311 338 331 328 320 318 320 324 327 327 327 327 320 321 319 311 314 311 308 307 304 303 302 298 296 295 296 298 299 300
299 240 258 175 140 79 91 273 103 122 189 313 319 305 294 320 318 321 325 336 340 343 344 345 342 335 336 335 333 333 326 319 312 308 306 307 306 299 293 290 294 294 296 298
227 259 273 270 151 137 203 249 154 303 307 299 267 279 304 310 316 319 326 335 341 343 350 354 355 350 347 341 335 323 323 316 309 308 309 308 306 298 293 290 290 291 294 298
203 235 260 166 124 192 140 313 298 287 272 274 292 299 299 306 309 317 328 334 340 339 342 347 348 347 344 344 337 334 325 317 317 315 308 306 305 300 294 290 288 288 290 292
193 217 251 189 234 241 272 283 285 264 265 293 299 304 306 305 306 316 325 330 335 337 339 344 345 340 335 338 337 332 329 327 323 314 311 310 307 304 298 294 291 290 289 292
226 235 265 281 295 296 293 290 267 274 296 297 293 300 294 289 301 313 324 330 336 336 340 339 340 338 339 339 338 328 322 321 320 318 314 309 306 302 298 293 291 289 289 289
261 268 285 276 277 286 291 281 278 282 290 299 295 281 283 296 311 322 325 329 334 336 334 335 336 334 336 339 336 332 328 326 323 318 314 310 303 300 298 294 290 290 290 288
267 275 273 278 282 290 290 301 294 282 291 296 260 266 286 306 318 316 318 325 328 329 328 327 329 329 332 335 331 327 325 325 324 319 316 313 309 304 300 299 297 293 291 288
269 273 266 273 281 278 281 298 286 283 287 258 256 270 297 303 303 314 320 321 319 319 322 325 328 330 332 331 329 324 324 324 321 319 316 315 309 301 299 300 296 292 290 291
275 285 283 279 283 283 288 274 278 285 262 254 267 280 291 298 307 311 312 315 316 318 320 323 324 325 329 329 324 323 324 324 323 321 317 313 307 304 299 292 294 294 291 288
279 280 281 285 274 280 288 288 280 258 264 273 281 296 306 300 300 303 306 311 316 315 315 316 318 322 325 323 321 322 323 324 323 320 316 312 310 304 299 296 292 291 292 289
299 300 297 308 307 314 314 304 296 297 301 302 306 301 303 302 301 303 306 315 315 312 312 313 317 322 323 323 322 320 317 317 320 320 318 315 312 308 303 299 294 294 293 289
286 338 323 0 8 353 335 321 315 307 306 303 299 301 297 300 299 298 307 311 309 307 306 305 312 319 319 321 319 318 316 313 315 315 315 315 313 311 305 299 295 291 290 292
130 97 55 26 358 339 328 319 316 307 303 302 294 290 292 295 294 298 305 306 303 301 303 307 310 309 313 318 322 317 317 313 304 308 311 311 311 310 307 298 291 291 291 287
56 25 7 350 338 318 307 306 308 307 302 298 296 291 291 292 292 296 301 299 297 298 305 310 309 303 303 314 319 318 317 316 305 297 303 309 311 310 305 301 298 294 291 287
342 327 311 293 306 310 301 300 301 298 295 296 292 288 287 290 294 295 293 290 291 295 304 307 308 302 301 305 316 313 314 313 312 297 291 299 304 305 304 300 297 293 292 288
306 306 304 303 310 311 307 307 305 297 298 297 290 290 291 291 290 291 287 286 292 294 301 308 306 304 302 305 311 309 308 312 307 295 294 290 294 295 295 299 298 297 295 293
302 303 306 307 310 308 303 300 296 291 291 294 294 293 293 292 293 292 290 288 290 294 301 307 309 311 311 310 307 307 308 311 306 295 297 295 300 296 293 290 290 293 296 293
303 307 305 305 305 303 301 296 296 296 296 299 298 296 294 294 295 292 288 292 298 297 298 301 308 313 314 312 308 307 310 312 305 298 299 292 302 294 293 290 287 285 296 293
305 305 301 301 299 295 294 300 302 303 302 302 302 303 299 297 300 298 300 304 301 297 296 304 310 312 315 311 311 311 311 311 309 310 294 302 301 297 298 292 292 288 292 291
298 299 299 300 299 300 304 305 303 301 302 299 300 302 301 300 293 303 304 303 301 302 304 307 312 315 315 312 312 311 311 309 306 307 300 304 300 300 295 291 289 289 287 285
293 292 295 297 295 297 298 300 296 301 300 300 306 307 307 308 305 301 303 304 305 306 306 308 311 313 312 312 312 310 309 306 306 306 308 305 301 299 299 295 289 284 283 276
285 286 288 288 291 294 294 291 288 290 298 291 291 302 303 305 305 304 303 303 304 304 307 309 311 311 310 312 312 310 308 307 307 311 311 310 305 305 307 298 285 277 271 269
Height
1553 1547 1546 1545 1546 1547 1549 1546 1555 1538 1532 1516 1515 1513 1509 1506 1503 1500 1496 1493 1490 1486 1481 1478 1475 1472 1468 1466 1463 1460 1458 1455 1453 1451 1449 1447 1446 1444 1442 1439 1437 1435 1433 1431
1550 1540 1540 1539 1532 1532 1532 1533 1533 1525 1519 1509 1507 1507 1506 1503 1500 1497 1493 1490 1486 1482 1478 1474 1470 1467 1464 1461 1458 1456 1453 1451 1449 1446 1444 1442 1441 1439 1437 1435 1433 1431 1429 1427
1558 1539 1540 1537 1512 1516 1519 1515 1514 1521 1505 1505 1504 1504 1503 1499 1497 1495 1491 1487 1483 1477 1473 1469 1465 1462 1459 1456 1453 1450 1448 1446 1445 1443 1440 1438 1436 1434 1432 1430 1429 1427 1425 1423
1560 1547 1544 1510 1504 1507 1508 1506 1508 1505 1504 1504 1504 1502 1501 1498 1496 1492 1488 1483 1478 1473 1468 1464 1460 1457 1454 1451 1449 1447 1443 1441 1440 1438 1436 1434 1432 1430 1428 1426 1424 1422 1420 1418
1565 1560 1529 1501 1506 1507 1508 1502 1495 1497 1502 1503 1502 1499 1497 1496 1492 1490 1486 1480 1475 1470 1464 1459 1456 1452 1449 1446 1443 1442 1439 1436 1434 1433 1430 1428 1426 1424 1423 1421 1420 1418 1416 1414
1551 1555 1537 1502 1503 1505 1506 1511 1492 1493 1498 1499 1498 1500 1493 1492 1490 1486 1482 1477 1471 1466 1462 1457 1453 1449 1446 1444 1441 1438 1435 1432 1430 1428 1425 1422 1420 1418 1417 1415 1413 1412 1410 1409
1557 1545 1527 1502 1501 1504 1508 1502 1494 1495 1495 1495 1496 1495 1491 1488 1485 1482 1478 1474 1470 1466 1461 1457 1452 1447 1444 1441 1437 1434 1431 1427 1425 1422 1419 1417 1414 1411 1409 1408 1407 1406 1404 1403
1547 1537 1528 1495 1503 1506 1496 1494 1494 1493 1491 1491 1491 1488 1486 1482 1479 1477 1475 1471 1467 1462 1458 1454 1451 1447 1442 1439 1435 1430 1426 1422 1420 1417 1414 1411 1408 1406 1404 1402 1400 1398 1397 1396
1522 1511 1494 1493 1491 1490 1489 1488 1487 1487 1485 1484 1484 1482 1480 1478 1476 1473 1470 1467 1463 1458 1453 1450 1447 1444 1439 1435 1430 1425 1421 1418 1414 1411 1408 1406 1402 1399 1397 1395 1393 1392 1391 1389
1501 1492 1491 1491 1488 1487 1486 1483 1481 1480 1480 1481 1479 1476 1474 1472 1469 1468 1465 1462 1458 1454 1450 1445 1442 1439 1435 1430 1426 1421 1416 1412 1408 1405 1401 1399 1396 1393 1391 1389 1387 1385 1383 1381
1490 1488 1486 1485 1485 1482 1480 1477 1476 1475 1475 1474 1473 1471 1470 1469 1466 1463 1460 1456 1453 1450 1446 1442 1438 1433 1429 1425 1420 1415 1410 1405 1401 1398 1394 1390 1387 1385 1383 1381 1380 1378 1376 1374
1478 1486 1484 1477 1477 1476 1473 1472 1471 1469 1468 1468 1466 1466 1466 1464 1462 1460 1455 1452 1448 1444 1441 1437 1433 1429 1425 1421 1417 1412 1406 1401 1396 1391 1386 1382 1378 1375 1374 1372 1372 1370 1368 1365
1476 1479 1476 1472 1471 1469 1467 1466 1464 1463 1462 1462 1462 1461 1459 1458 1456 1455 1452 1448 1444 1440 1435 1431 1427 1423 1420 1415 1410 1405 1400 1395 1390 1386 1381 1377 1372 1367 1363 1361 1362 1360 1360 1358
1472 1472 1467 1468 1463 1464 1461 1459 1459 1458 1458 1457 1458 1458 1457 1455 1450 1447 1444 1441 1437 1433 1428 1424 1420 1416 1413 1408 1403 1398 1393 1388 1383 1378 1375 1371 1367 1363 1359 1355 1351 1349 1351 1349
1464 1463 1460 1458 1458 1456 1455 1454 1454 1454 1454 1454 1453 1452 1451 1449 1445 1441 1438 1434 1430 1426 1422 1418 1413 1409 1406 1401 1397 1392 1386 1381 1376 1370 1366 1363 1358 1354 1350 1347 1343 1340 1339 1339
1458 1457 1456 1456 1454 1453 1455 1454 1454 1454 1452 1451 1450 1448 1445 1442 1439 1435 1431 1427 1423 1418 1414 1410 1407 1403 1399 1394 1389 1383 1379 1375 1370 1363 1358 1354 1350 1346 1341 1338 1335 1331 1329 1329
1452 1453 1455 1456 1455 1454 1454 1453 1452 1451 1449 1448 1445 1442 1438 1434 1431 1426 1421 1418 1415 1410 1405 1402 1398 1394 1391 1387 1382 1377 1371 1366 1362 1357 1352 1347 1343 1338 1334 1330 1325 1323 1321 1321
1449 1452 1453 1455 1455 1453 1452 1451 1449 1446 1444 1441 1438 1434 1430 1427 1422 1417 1412 1408 1403 1399 1396 1392 1390 1386 1381 1379 1375 1369 1364 1358 1353 1349 1344 1339 1335 1330 1325 1321 1318 1314 1312 1312
1451 1452 1454 1453 1452 1450 1447 1444 1442 1439 1436 1433 1429 1424 1421 1418 1414 1410 1407 1402 1395 1387 1384 1383 1381 1378 1373 1370 1367 1361 1356 1350 1344 1339 1335 1330 1325 1321 1317 1312 1308 1306 1304 1302
1451 1451 1448 1446 1444 1443 1439 1436 1433 1429 1426 1423 1419 1415 1411 1407 1404 1401 1398 1392 1386 1377 1374 1372 1371 1367 1363 1361 1358 1352 1347 1341 1335 1329 1324 1320 1316 1311 1307 1303 1299 1296 1294 1293
1443 1442 1439 1437 1435 1433 1430 1427 1424 1419 1414 1411 1408 1404 1399 1394 1390 1386 1384 1379 1375 1370 1365 1363 1360 1356 1353 1350 1347 1341 1336 1330 1325 1320 1315 1310 1305 1301 1297 1293 1291 1288 1286 1284
1437 1435 1432 1429 1425 1421 1419 1416 1413 1408 1404 1400 1396 1393 1387 1382 1377 1373 1370 1367 1363 1359 1358 1355 1351 1347 1344 1340 1335 1329 1325 1319 1314 1309 1304 1300 1296 1291 1287 1284 1281 1278 1276 1275
1429 1427 1424 1420 1416 1412 1408 1404 1401 1398 1393 1390 1386 1381 1378 1374 1370 1365 1359 1354 1352 1351 1349 1346 1343 1339 1335 1329 1324 1319 1313 1308 1303 1298 1293 1288 1285 1281 1277 1273 1271 1269 1267 1265
1418 1415 1413 1410 1406 1401 1397 1392 1390 1386 1382 1378 1374 1370 1366 1362 1358 1353 1349 1345 1341 1341 1339 1337 1333 1329 1325 1319 1314 1308 1303 1297 1292 1286 1282 1279 1273 1269 1266 1263 1261 1259 1257 1255
1408 1405 1401 1397 1393 1388 1385 1381 1379 1374 1371 1367 1363 1358 1355 1352 1350 1341 1339 1336 1333 1331 1329 1326 1323 1318 1313 1308 1303 1298 1293 1287 1282 1277 1272 1267 1262 1258 1255 1253 1250 1249 1247 1246
1397 1393 1389 1385 1382 1378 1374 1372 1368 1363 1360 1356 1351 1346 1344 1342 1339 1336 1331 1328 1325 1322 1319 1316 1312 1308 1303 1298 1293 1288 1283 1278 1272 1268 1262 1257 1252 1249 1246 1242 1240 1239 1239 1239
1384 1382 1378 1373 1370 1367 1365 1363 1359 1354 1351 1349 1344 1338 1336 1332 1329 1326 1323 1319 1316 1313 1309 1305 1301 1297 1294 1289 1284 1279 1275 1269 1265 1259 1254 1249 1245 1242 1238 1236 1234 1234 1234 1235